Home   Weather   Valladolid   Past weeks

Flag for Spain Past Weather in Valladolid, Spain — Yesterday and Last 2 Weeks

Now
75 °F

Passing clouds.


Feels Like: 78 °F
Forecast: 57 / 88 °F
Wind: 13 mph from Northeast

Location: Valladolid / Villanubla

Current Time: Aug 19, 2017 at 1:27:35 pm

Latest Report: Aug 19, 2017 at 1:00 pm


Visibility: N/A

Pressure: 30.18 "Hg (27.81 "Hg at 712m altitude)

Humidity: 47%

Dew Point: 54 °F

Location of ValladolidLocation

Past Weather in Valladolid — Graph

°F

Valladolid Temperature Yesterday

Maximum temperature yesterday: 86 °F (at 4:30 pm)
Minimum temperature yesterday: 59 °F (at 8:30 am)
Average temperature yesterday: 78 °F

High & Low Weather Summary for the Past Weeks

 TemperatureHumidityPressure
High91 °F (Aug 4, 5:30 pm)94% (Aug 5, 7:00 am)30.33 "Hg (Aug 5, 7:00 am)
Low41 °F (Aug 10, 7:30 am)15% (Aug 7, 8:30 pm)29.92 "Hg (Aug 7, 7:30 pm)
Average73 °F39%30.14 "Hg
* Reported Aug 4 12:00 pm — Aug 19 12:00 pm, Valladolid. Weather by CustomWeather, © 2017

Note: Actual official high and low records may vary slightly from our data, if they occured in-between our weather recording intervals... More about our weather records

Advertising

Valladolid Weather History for the Previous 24 Hours

Scroll right to see more
 ConditionsComfort  
Time TempWeatherWind HumidityBarometerVisibility
12:00 pm
Sat, Aug 19
72 °FSunny.15 mph53%30.21 "Hg10 mi
11:30 am70 °FPassing clouds.15 mph57%30.21 "HgN/A
11:00 am68 °FSunny.16 mph60%30.21 "Hg10 mi
10:30 am66 °FPassing clouds.16 mph64%30.21 "HgN/A
10:00 am64 °FSunny.17 mph68%30.21 "Hg10 mi
9:30 am63 °FSunny.18 mph73%30.21 "Hg10 mi
9:00 am61 °FSunny.16 mph77%30.18 "Hg10 mi
8:30 am59 °FSunny.15 mph82%30.18 "Hg10 mi
8:00 am59 °FSunny.13 mph77%30.18 "Hg10 mi
7:30 am59 °FClear.14 mph77%30.15 "Hg10 mi
7:00 am59 °FClear.13 mph77%30.15 "Hg10 mi
9:30 pm
Fri, Aug 18
75 °FClear.16 mph47%30.12 "Hg10 mi
9:00 pm77 °FSunny.17 mph42%30.12 "Hg10 mi
8:30 pm82 °FSunny.2 mph21%30.09 "Hg10 mi
7:30 pm84 °FPassing clouds.7 mph25%30.09 "HgN/A
7:00 pm84 °FPassing clouds.8 mph23%30.09 "HgN/A
6:30 pm86 °FPassing clouds.8 mph24%30.12 "HgN/A
6:00 pm86 °FPassing clouds.8 mph25%30.12 "HgN/A
5:30 pm84 °FPassing clouds.9 mph25%30.12 "HgN/A
5:00 pm86 °FPassing clouds.12 mph24%30.12 "HgN/A
4:30 pm86 °FPassing clouds.14 mph25%30.12 "HgN/A
4:00 pm84 °FSunny.6 mph27%30.12 "Hg10 mi
3:30 pm82 °FSunny.6 mph28%30.15 "Hg10 mi
3:00 pm82 °FPassing clouds.5 mph28%30.15 "HgN/A
2:30 pm82 °FSunny.8 mph28%30.15 "Hg10 mi
2:00 pm81 °FSunny.7 mph30%30.15 "Hg10 mi
1:30 pm81 °FPassing clouds.6 mph30%30.15 "HgN/A
1:00 pm79 °FSunny.6 mph34%30.15 "Hg10 mi
Weather by CustomWeather, © 2017

See weather overviewHow to use our weather pages